Location: Lugrin
(46.4033°N, 6.6674°E)
Time: 01:13:48
(UTC+00:00)

HJ-1C - Pass Details

Date: 18 September 2020
Orbit: 432 x 443 km, 97.1° (Epoch: 31 October)

Event Time Altitude Azimuth Distance (km) Brightness Sun altitude
Rises 18:24:01 0° 162° (SSE) 2,395 6.8 -8.7°
Reaches altitude 10° 18:26:01 10° 161° (SSE) 1,533 5.8 -9.0°
Maximum altitude 18:29:17 74° 76° (ENE) 456 3.2 -9.5°
Drops below altitude 10° 18:32:36 10° 351° (N) 1,550 6.4 -10.1°
Sets 18:34:38 0° 350° (N) 2,426 7.4 -10.4°
